Вернуться в каталог

HULIANWANG DIGUI-151

АктивенСвязьLEO
NORAD 67527·PAYLOAD·🇨🇳 China

Запущен Jan 19, 2026 с Wenchang Space Launch Site

Loading…

Ближайшие Пролёты (ближайшие 24 часа)

TLE

СвежийSource: Space-Track

Эпоха: Sep 14, 2026, 10:31 UTC

1 67527U 26013F   26257.43860968 -.00000104  00000-0  44199-4 0  9992
2 67527  50.0102  35.5426 0000816  87.0919 273.0046 13.29329973 31926

Отслеживайте HULIANWANG DIGUI-151 в реальном времени с AllMySat

Download on the App Store